Weather in Zavjyalovo

Russia / Udmurt Republic     56°47′10″N   53°22′26″E
temp.,
°C
wind,
m/s
gust,
m/s
humid.,
%
clouds,
%
prec.,
mm/h
press.,
hPa
HPBL,
m
8 march, mon
mon801:00−13s51094100 0.1 1003334
04:00−12sse61295100 0.6 1000484
07:00−10sse51194100 0.7 996553
10:00−7se71194100 1.2 994612
13:00−3ssw71192100 1.4 993924
16:00−4wsw101580100 2.4 9941144
19:00−7wsw6148675 0.0 998453
22:00−11wsw489348 0.0 1000135
9 march, tue
tue901:00−13sw349655 0.0 100055
04:00−13wsw239578 0.0 100022
07:00−15wsw479775 0.0 1003112
10:00−11w469587 0.0 1006268
13:00−7w348597 0.0 1008599
16:00−7wsw348898 0.1 1009582
19:00−10wsw1195100 0.3 100931
22:00−11nnw1297100 0.4 101021
10 march, wed
wed1001:00−13nne489697 0.2 1009215
04:00−17nne6119496 0.2 1009321
07:00−19nne61195100 0.1 1010406
10:00−20n61189100 0.2 1010411
13:00−17n71181100 0.0 1011597
16:00−16n71179100 0.0 1012776
19:00−20nnw5128779 0.0 1014333
22:00−22nnw4129066 0.0 1015287
11 march, thu
thu1101:00−24nw479446 0.0 1015137
04:00−26nw479734 0.0 101699
07:00−26wnw479827 0.0 1016135
10:00−20wnw479464 0.1 1016325
13:00−15wnw5892100 0.1 1016432
16:00−12wnw5990100 0.2 1015608
19:00−11w61391100 0.1 1015467
22:00−9nw51191100 0.1 1016530
12 march, fri
fri1201:00−11nw51091100 0.0 1018362
04:00−15nw5109395 0.0 1020246
07:00−19wnw499635 0.0 1022164
10:00−14nw599037 0.0 1024383
13:00−9wnw597658 0.0 1025627
16:00−7wnw697865 0.0 1025938
19:00−10w51186100 0.0 1026312
22:00−12w41090100 0.0 1027226